"TOA5","AWS1","CR1000","7964","CR1000.Std.14","CPU:AWS1_114.CR1","64363","TBL110"
"TIMESTAMP","RECORD","Wind_spd_WVc(1)","Wind_spd_WVc(2)","Air_Temp_Avg","Humidity_Avg","SW_upper_Wm2_Avg","Rain_Tot","Press_Avg","Issui_Tot","Depth_cm","SR50A_Raw","Quality","Ground_Temp_Avg(1)","Ground_Temp_Avg(2)","SW_lower_Wm2_Avg","Albedo_Avg","SWC_per(1)","SWC_per(2)","Period(1)","Period(2)"
"TS","RN","","","","","","","","","","","","","","","","","","",""
"","","WVc","WVc","Avg","Avg","Avg","Tot","Avg","Tot","Smp","Smp","Smp","Avg","Avg","Avg","Avg","Smp","Smp","Smp","Smp"
"2018-03-12 00:00:00",331405,0.331,299.3,-5.111,77.44,0,0,867.404,0,63.22,2.572,190,0.602,1.059,0,0,53.16,61.1,34.07,35.93
"2018-03-12 00:10:00",331406,0.73,272.6,-5.137,79.53,0,0,867.3808,0,63.12,2.573,177,0.611,1.07,0.05691141,0,53.11,61.1,34.06,35.93
"2018-03-12 00:20:00",331407,0.416,199.2,-5.22,82.8,0,0,867.2232,0,63.04,2.575,177,0.618,1.081,0.04173566,0,53.16,61.1,34.07,35.93
"2018-03-12 00:30:00",331408,0.357,190.5,-5.257,84.3,0,0,867.1881,0,63.05,2.574,169,0.627,1.095,0.1441881,0,53.11,61.04,34.06,35.92
"2018-03-12 00:40:00",331409,0.449,178.4,-5.169,86.1,0,0,867.1802,0,62.99,2.575,169,0.626,1.101,0.22767,0,53.11,61.04,34.06,35.92
"2018-03-12 00:50:00",331410,0.183,187.1,-5.187,86.7,0,0,867.186,0,62.93,2.575,169,0.632,1.107,0.227676,0,53.11,61.04,34.06,35.92
"2018-03-12 01:00:00",331411,0.465,267.9,-5.142,87.9,0,0,867.1697,0,62.95,2.575,169,0.635,1.11,0.1366073,0,53.16,61.1,34.07,35.93
"2018-03-12 01:10:00",331412,0.387,352.9,-5.151,88.6,0,0,867.1521,0,63.14,2.573,177,0.638,1.113,0.2276814,0,53.16,61.04,34.07,35.92
"2018-03-12 01:20:00",331413,0.422,178.4,-5.17,87.8,0,0,867.1709,0,62.89,2.576,170,0.638,1.113,0.07589417,0,53.16,61.04,34.07,35.92
"2018-03-12 01:30:00",331414,0.377,215.3,-5.371,88.1,0,0,866.9818,0,62.9,2.577,170,0.633,1.107,0,0,53.11,61.04,34.06,35.92
"2018-03-12 01:40:00",331415,0.767,197.5,-5.616,88.7,0,0,866.8194,0,62.9,2.578,169,0.654,1.116,0,0,53.11,61.04,34.06,35.92
"2018-03-12 01:50:00",331416,0.466,213.3,-5.726,88,0,0,866.7825,0,62.98,2.578,170,0.678,1.131,0,0,53.16,61.04,34.07,35.92
"2018-03-12 02:00:00",331417,0.585,169.1,-5.855,86.8,0,0,866.7332,0,62.9,2.579,170,0.681,1.146,0.03794706,0,53.16,61.04,34.07,35.92
"2018-03-12 02:10:00",331418,0.929,163.7,-5.897,86.6,0,0,866.7423,0,63,2.578,170,0.682,1.154,0.09866264,0,53.16,61.04,34.07,35.92
"2018-03-12 02:20:00",331419,1.01,165.5,-5.874,82.8,0,0,866.7502,0,62.84,2.579,169,0.683,1.142,0.04174195,0,53.16,61.04,34.07,35.92
"2018-03-12 02:30:00",331420,1.364,176.3,-5.877,79.35,0,0,866.5487,0,62.98,2.578,174,0.683,1.149,0.007589447,0,53.11,61.04,34.06,35.92
"2018-03-12 02:40:00",331421,1.169,181.9,-5.877,77.32,0,0,866.5294,0,62.86,2.579,173,0.683,1.14,0.03035779,0,53.11,61.04,34.06,35.92
"2018-03-12 02:50:00",331422,1.343,185.2,-5.855,75.96,0,0,866.4054,0,63.07,2.577,174,0.684,1.096,0.02276834,0,53.11,61.04,34.06,35.92
"2018-03-12 03:00:00",331423,1.083,185.1,-5.774,72.03,0,0,866.319,0,63.13,2.576,170,0.685,1.089,0.110047,0,53.11,61.04,34.06,35.92
"2018-03-12 03:10:00",331424,0.748,170.3,-5.793,71.58,0,0,866.2558,0,62.72,2.581,169,0.697,1.088,0.0493314,0,53.11,61.04,34.06,35.92
"2018-03-12 03:20:00",331425,0.392,208.1,-6.113,73.3,0,0,866.3127,0,62.84,2.579,178,0.723,1.079,0.03035779,0,53.11,61.04,34.06,35.92
"2018-03-12 03:30:00",331426,0.554,208.4,-5.999,70.64,0,0,866.2874,0,62.89,2.578,170,0.721,1.045,0.09866281,0,53.11,60.98,34.06,35.9
"2018-03-12 03:40:00",331427,0.701,204.5,-6,70.62,0,0,866.2664,0,62.91,2.581,170,0.724,1.011,0.110047,0,53.11,60.98,34.06,35.9
"2018-03-12 03:50:00",331428,0.581,180.2,-6.341,73.61,0,0,866.2558,0,63.21,2.579,169,0.694,1.019,0.003794723,0,53.11,60.98,34.06,35.9
"2018-03-12 04:00:00",331429,0.84,187.7,-6.462,72.6,0,0,866.2558,0,62.77,2.582,185,0.678,1.016,0.02656307,0,53.11,60.98,34.06,35.9
"2018-03-12 04:10:00",331430,0.547,217.5,-6.2,68.54,0,0,866.2938,0,62.96,2.579,181,0.671,1.02,0.05312613,0,53.11,60.98,34.06,35.9
"2018-03-12 04:20:00",331431,0.712,213.5,-5.839,62.11,0,0,866.3802,0,62.18,2.584,170,0.659,1.026,0.1479942,0,53.11,60.98,34.06,35.9
"2018-03-12 04:30:00",331432,0.327,281.6,-5.759,59.83,0,0,866.5068,0,62.72,2.581,170,0.651,1.022,0.09107336,0,53.11,60.98,34.06,35.9
"2018-03-12 04:40:00",331433,0.273,232.4,-5.962,61.01,0,0,866.511,0,62.67,2.583,170,0.641,1.029,0.03415251,0,53.11,60.98,34.06,35.9
"2018-03-12 04:50:00",331434,0.141,80.7,-6.281,62.74,0,0,866.6965,0,62.69,2.584,169,0.639,1.031,0,0,53.11,60.98,34.06,35.9
"2018-03-12 05:00:00",331435,0.314,9.47,-6.262,63.37,0,0,866.7619,0,62.63,2.583,173,0.642,1.051,0.01897362,0,53.11,60.98,34.06,35.9
"2018-03-12 05:10:00",331436,0.224,48.98,-6.664,67.24,0,0,866.9412,0,62.75,2.584,173,0.644,1.067,0,0,53.11,60.98,34.06,35.9
"2018-03-12 05:20:00",331437,0.05,154,-6.933,70.53,0,0,867.015,0,62.88,2.585,170,0.647,1.071,0.01138417,0,53.11,60.98,34.06,35.9
"2018-03-12 05:30:00",331438,0.405,165,-7.137,73.32,0,0,867.0446,0,63.02,2.583,178,0.66,1.071,0.02276834,0,53.11,60.98,34.06,35.9
"2018-03-12 05:40:00",331439,0.263,245.9,-6.65,72.22,0,0,867.2576,0,62.65,2.584,177,0.669,1.075,0.1707655,0,53.11,60.98,34.06,35.9
"2018-03-12 05:50:00",331440,0.298,276.7,-6.245,67.54,0,0,867.2682,0,62.61,2.586,181,0.666,1.078,0.208715,0,53.05,60.98,34.04,35.9
"2018-03-12 06:00:00",331441,0.556,62.28,-6.897,74.1,0,0,867.361,0,62.94,2.582,170,0.678,1.087,0.258058,0,53.11,60.92,34.06,35.89
"2018-03-12 06:10:00",331442,0.51,124.2,-6.624,73.91,0,0,867.283,0,62.91,2.581,174,0.69,1.096,1.624307,0,53.05,60.92,34.04,35.89
"2018-03-12 06:20:00",331443,1.186,198.1,-5.655,55.97,0.5747049,0,867.2682,0,62.45,2.58,190,0.711,1.11,4.691,7.122,53.05,60.92,34.04,35.89
"2018-03-12 06:30:00",331444,0.871,197.7,-5.205,51.18,3.243688,0,867.4052,0,62.68,2.578,178,0.684,1.127,5.993162,1.923,53.11,60.92,34.06,35.89
"2018-03-12 06:40:00",331445,1.583,186.6,-5.277,52.32,7.054253,0,867.4221,0,62.9,2.575,173,0.693,1.124,8.262933,1.18,53.11,60.92,34.06,35.89
"2018-03-12 06:50:00",331446,1.074,163.1,-4.9,45.22,15.49772,0,867.3293,0,62.91,2.572,177,0.689,1.089,20.35886,1.236,53.05,60.92,34.04,35.89
"2018-03-12 07:00:00",331447,0.859,176,-4.231,40.67,27.1215,0,867.4115,0,62.79,2.571,178,0.69,1.055,37.916,1.408,53.05,60.98,34.04,35.9
"2018-03-12 07:10:00",331448,0.712,153.9,-4.061,42.07,30.84035,0,867.5085,0,62.97,2.568,186,0.704,1.039,42.03639,1.402,53.11,60.98,34.06,35.9
"2018-03-12 07:20:00",331449,0.524,167.4,-3.725,40.57,31.38537,0,867.5212,0,62.38,2.572,186,0.701,1.092,44.90638,1.441,53.11,60.98,34.06,35.9
"2018-03-12 07:30:00",331450,0.671,124.1,-3.219,39.42,91.36462,0,867.6583,0,63.21,2.562,190,0.681,1.075,51.57179,0.812,53.11,60.98,34.06,35.9
"2018-03-12 07:40:00",331451,0.531,206.3,-2.753,38.56,231.6472,0,867.7744,0,62.69,2.564,182,0.645,1.112,65.5507,0.29,53.05,60.98,34.04,35.9
"2018-03-12 07:50:00",331452,0.668,220.9,-2.133,34.19,282.7977,0,867.9473,0,62.84,2.56,191,0.661,1.099,83.95094,0.301,53.05,60.92,34.04,35.89
"2018-03-12 08:00:00",331453,0.521,339,-1.723,28.64,211.1402,0,868.2067,0,62.74,2.561,177,0.678,1.112,103.0191,0.625,53.05,60.98,34.04,35.9
"2018-03-12 08:10:00",331454,0.818,216.4,-1.407,31.71,125.0348,0,868.2266,0,62.9,2.557,190,0.707,1.058,108.8738,1.216,53.11,60.92,34.06,35.89
"2018-03-12 08:20:00",331455,0.374,266.8,-1.076,27.02,71.79517,0,868.2787,0,62.83,2.556,186,0.704,1.137,107.5491,1.883,53.11,60.92,34.06,35.89
"2018-03-12 08:30:00",331456,0.975,244.7,-0.823,27.88,60.22479,0,868.3397,0,63.15,2.552,190,0.599,1.103,105.3163,1.892,53.05,60.92,34.04,35.89
"2018-03-12 08:40:00",331457,0.646,227.9,-0.543,27.16,122.9047,0,868.3572,0,63.04,2.551,189,0.643,1.035,103.8268,1.167,53.05,60.92,34.04,35.89
"2018-03-12 08:50:00",331458,0.661,242.6,-0.298,25.57,51.82721,0,868.3976,0,62.67,2.554,192,0.69,0.984,100.7047,1.969,53.05,60.92,34.04,35.89
"2018-03-12 09:00:00",331459,0.456,210.2,-0.159,30.3,52.02583,0,868.4819,0,62.27,2.558,182,0.682,1.046,97.61431,1.924,53.05,60.92,34.04,35.89
"2018-03-12 09:10:00",331460,0.944,162.2,0.089,27.68,62.14632,0,868.3636,0,62.98,2.549,187,0.658,1.093,90.04794,1.521,53.05,60.92,34.04,35.89
"2018-03-12 09:20:00",331461,0.61,133.4,0.381,27.63,116.5373,0,868.3583,0,62.61,2.551,173,0.561,1.074,84.41973,0.842,53.05,60.86,34.04,35.88
"2018-03-12 09:30:00",331462,0.693,142.8,0.441,24.91,74.54985,0,868.4182,0,62.86,2.548,186,0.531,1.036,80.49781,1.156,53.05,60.86,34.04,35.88
"2018-03-12 09:40:00",331463,0.857,258.5,0.593,28.34,110.2635,0,868.5153,0,63.11,2.546,186,0.523,0.966,82.53014,1.094,53.05,60.86,34.04,35.88
"2018-03-12 09:50:00",331464,0.751,235.2,0.634,30.99,96.10403,0,868.5101,0,62.87,2.548,181,0.528,0.947,86.24064,0.972,53.05,60.92,34.04,35.89
"2018-03-12 10:00:00",331465,1.005,213.8,0.936,29.72,128.0295,0,868.5457,0,62.9,2.546,190,0.519,0.945,90.99022,0.882,53.05,60.86,34.04,35.88
"2018-03-12 10:10:00",331466,0.618,219.6,1.267,29.54,342.1275,0,868.7521,0,62.82,2.544,180,0.515,0.949,99.80542,0.611,53.05,60.92,34.04,35.89
"2018-03-12 10:20:00",331467,0.58,289.3,1.345,30.71,208.5661,0,868.6678,0,62.75,2.547,185,0.509,0.944,111.2635,0.747,53.05,60.86,34.04,35.88
"2018-03-12 10:30:00",331468,0.816,309.1,1.261,34.93,107.9438,0,868.611,0,62.77,2.547,190,0.509,0.94,126.2739,1.37,53.05,60.86,34.04,35.88
"2018-03-12 10:40:00",331469,0.723,31.83,1.221,36.34,91.79198,0,868.7394,0,63.03,2.544,189,0.519,0.939,149.5262,1.695,53.05,60.92,34.04,35.89
"2018-03-12 10:50:00",331470,0.763,25.92,1.592,36.45,698.816,0,868.7627,0,62.83,2.544,189,0.556,0.938,169.5605,0.395,53.05,60.86,34.04,35.88
"2018-03-12 11:00:00",331471,0.739,340.3,1.71,37.88,933.0032,0,868.7627,0,63.09,2.541,181,0.598,0.937,173.4385,0.186,53.05,60.92,34.04,35.89
"2018-03-12 11:10:00",331472,0.517,4.866,1.982,37.15,936.4708,0,868.7627,0,62.63,2.543,169,0.593,0.916,176.9033,0.189,53.05,60.86,34.04,35.88
"2018-03-12 11:20:00",331473,0.827,333.3,2.268,35.31,789.6953,0,868.762,0,62.57,2.544,169,0.593,1.026,207.0063,0.28,53.05,60.86,34.04,35.88
"2018-03-12 11:30:00",331474,0.42,317.1,2.609,34.41,934.2574,0,868.7181,0,62.15,2.544,177,0.593,1.066,263.7704,0.283,53.05,60.86,34.04,35.88
"2018-03-12 11:40:00",331475,0.687,324.5,3.273,30.07,961.225,0,868.6826,0,62.72,2.538,186,0.578,1.056,339.6073,0.353,53.05,60.92,34.04,35.89
"2018-03-12 11:50:00",331476,0.578,335.4,3.498,26.57,963.0778,0,868.6735,0,61.61,2.547,170,0.507,0.978,416.157,0.432,53.05,60.92,34.04,35.89
"2018-03-12 12:00:00",331477,0.734,325,3.722,27.26,961.1104,0,868.6332,0,61.78,2.545,178,0.515,0.981,482.3332,0.502,53.05,60.86,34.04,35.88
"2018-03-12 12:10:00",331478,0.675,331.5,3.77,24.57,958.4111,0,868.4581,0,61.9,2.542,173,0.481,0.974,516.9506,0.539,53.05,60.86,34.04,35.88
"2018-03-12 12:20:00",331479,0.693,303.7,4.176,23.18,955.6277,0,868.3519,0,62.1,2.539,178,0.471,0.932,528.772,0.553,53.05,60.86,34.04,35.88
"2018-03-12 12:30:00",331480,0.828,321.1,4.416,21.13,949.8163,0,868.2878,0,62.22,2.537,173,0.434,0.882,528.238,0.556,53.05,60.86,34.04,35.88
"2018-03-12 12:40:00",331481,0.955,255.7,4.779,20.53,943.308,0,868.154,0,61.69,2.541,173,0.353,0.866,525.5433,0.557,53,60.86,34.03,35.88
"2018-03-12 12:50:00",331482,0.958,349.8,4.627,20.85,935.0106,0,868.0156,0,61.87,2.54,172,0.35,0.857,517.4646,0.553,53,60.8,34.03,35.86
"2018-03-12 13:00:00",331483,0.81,329.9,4.729,20.55,923.9885,0,867.8651,0,62.13,2.536,170,0.379,0.842,508.3778,0.55,53.05,60.8,34.04,35.86
"2018-03-12 13:10:00",331484,0.857,345.2,4.735,21.13,907.0082,0,867.8593,0,61.95,2.54,173,0.379,0.772,494.6822,0.545,53.05,60.86,34.04,35.88
"2018-03-12 13:20:00",331485,0.722,7.745,4.685,21.28,890.8683,0,867.7127,0,61.84,2.538,173,0.362,0.767,476.6376,0.535,53.05,60.8,34.04,35.86
"2018-03-12 13:30:00",331486,0.487,301.1,4.755,22.41,868.38,0,867.5654,0,62.14,2.536,178,0.332,0.769,451.5184,0.52,53.05,60.8,34.04,35.86
"2018-03-12 13:40:00",331487,0.91,307.8,4.424,20.94,848.9012,0,867.5457,0,61.92,2.539,174,0.359,0.751,413.4933,0.487,53,60.8,34.03,35.86
"2018-03-12 13:50:00",331488,0.5,305.9,4.576,22.19,820.8824,0,867.5074,0,62.3,2.537,181,0.362,0.745,346.9493,0.422,53,60.8,34.03,35.86
"2018-03-12 14:00:00",331489,0.499,38.42,4.663,22.84,792.858,0,867.3152,0,62.62,2.534,177,0.353,0.755,253.2918,0.319,53,60.8,34.03,35.86
"2018-03-12 14:10:00",331490,0.432,322.2,4.641,21.43,631.7985,0,867.3138,0,62.23,2.537,190,0.335,0.763,148.9234,0.242,53.05,60.8,34.04,35.86
"2018-03-12 14:20:00",331491,0.661,345.3,4.407,22.71,141.5023,0,867.3145,0,62.73,2.532,186,0.342,0.767,75.88435,0.696,53.05,60.8,34.04,35.86
"2018-03-12 14:30:00",331492,0.774,300,4.295,23.12,66.66148,0,867.3146,0,62.6,2.535,186,0.353,0.753,50.14137,0.752,53,60.86,34.03,35.88
"2018-03-12 14:40:00",331493,0.611,284.5,3.89,25.05,63.77671,0,867.3146,0.5,63.02,2.532,190,0.342,0.762,41.54831,0.651,53,60.86,34.03,35.88
"2018-03-12 14:50:00",331494,0.682,287.3,3.999,23.6,60.23011,0,867.3399,0,62.68,2.535,189,0.342,0.812,37.58285,0.624,53,60.8,34.03,35.86
"2018-03-12 15:00:00",331495,0.6,285.1,4.041,24.37,57.29169,0,867.3757,0,62.86,2.532,189,0.315,0.801,35.04499,0.612,53,60.86,34.03,35.88
"2018-03-12 15:10:00",331496,0.555,280.2,4.036,25.99,54.70755,0,867.4741,0,62.77,2.534,190,0.35,0.805,33.17427,0.606,53,60.8,34.03,35.86
"2018-03-12 15:20:00",331497,0.234,260,4.231,25.16,54.05231,0,867.4454,0,62.56,2.534,189,0.401,0.807,32.17702,0.595,53,60.8,34.03,35.86
"2018-03-12 15:30:00",331498,0.377,286.5,4.328,26.02,51.7994,0,867.5416,0,62,2.54,189,0.441,0.837,30.36605,0.586,53,60.8,34.03,35.86
"2018-03-12 15:40:00",331499,0.357,275.1,4.111,27.95,48.6707,0,867.6442,0,62.72,2.535,189,0.452,0.805,28.4318,0.584,53.05,60.8,34.04,35.86
"2018-03-12 15:50:00",331500,0.204,264.1,4.016,27.67,45.24092,0,867.6582,0,62.09,2.54,189,0.461,0.844,26.50751,0.586,53,60.8,34.03,35.86
"2018-03-12 16:00:00",331501,0.313,270,3.847,30.14,42.1993,0,867.8318,0,62.39,2.539,189,0.46,0.848,24.69256,0.585,53,60.8,34.03,35.86
"2018-03-12 16:10:00",331502,0.123,253.4,3.711,29.96,39.29101,0,867.912,0,62.03,2.543,189,0.452,0.849,22.99871,0.585,53,60.8,34.03,35.86
"2018-03-12 16:20:00",331503,0.176,263.5,3.448,32.49,36.08393,0,867.9332,0,62.39,2.541,189,0.423,0.86,21.16458,0.587,53,60.8,34.03,35.86
"2018-03-12 16:30:00",331504,0.095,257.1,3.219,33.68,33.06963,0,868.1564,0,62.31,2.543,189,0.427,0.887,19.48217,0.589,53,60.8,34.03,35.86
"2018-03-12 16:40:00",331505,0.104,229.3,3.035,33.13,30.69315,0,868.169,0,62.3,2.543,191,0.441,0.918,18.11114,0.59,53,60.8,34.03,35.86
"2018-03-12 16:50:00",331506,0.032,214.6,3.057,33.51,27.87033,0,868.3881,0,62.2,2.544,189,0.463,0.976,16.67295,0.598,53,60.8,34.03,35.86
"2018-03-12 17:00:00",331507,0.002,188,2.97,32.94,25.43172,0,868.4176,0,62.11,2.546,190,0.488,1.003,15.25314,0.6,53,60.8,34.03,35.86
"2018-03-12 17:10:00",331508,0.049,245.7,2.742,31.81,22.64554,0,868.5271,0,62.15,2.546,190,0.524,1.016,13.64284,0.602,53,60.8,34.03,35.86
"2018-03-12 17:20:00",331509,0,0,2.636,31.07,18.34087,0,868.6962,0,62.31,2.545,181,0.548,1.021,11.28522,0.616,53.05,60.74,34.04,35.85
"2018-03-12 17:30:00",331510,0.004,32.28,2.384,30.87,13.40681,0,868.736,0,62.03,2.549,189,0.572,1.016,8.737855,0.654,53,60.8,34.03,35.86
"2018-03-12 17:40:00",331511,0,0,2.17,31.36,8.079489,0,868.7543,0,62.05,2.55,182,0.591,0.99,5.872002,0.733,53,60.74,34.03,35.85
"2018-03-12 17:50:00",331512,0,0,1.771,33.47,2.531967,0,868.7606,0,62.13,2.551,178,0.591,0.934,2.934107,1.186,53,60.8,34.03,35.86
"2018-03-12 18:00:00",331513,0.024,354.9,1.145,44.99,0,0,868.7621,0,62.17,2.555,190,0.591,0.901,0.5155538,0,53,60.8,34.03,35.86
"2018-03-12 18:10:00",331514,0.056,354.9,0.529,48.58,0,0,868.8868,0,62.17,2.557,190,0.588,0.938,0,0,53,60.74,34.03,35.85
"2018-03-12 18:20:00",331515,0.016,354.9,0.253,47.79,0,0,869.0196,0,62.17,2.558,190,0.517,0.936,0,0,53,60.74,34.03,35.85
"2018-03-12 18:30:00",331516,0.177,353,-0.27,53,0,0,869.2071,0,62.15,2.561,186,0.463,0.938,0,0,53,60.74,34.03,35.85
"2018-03-12 18:40:00",331517,0.453,187.2,-0.674,52.95,0,0,869.2682,0,62.28,2.561,190,0.458,0.951,0,0,53,60.74,34.03,35.85
"2018-03-12 18:50:00",331518,0.208,177.1,-0.871,54.4,0,0,869.2687,0,62.21,2.562,191,0.531,0.982,0,0,52.94,60.74,34.02,35.85
"2018-03-12 19:00:00",331519,0.438,181.6,-0.887,53.7,0,0,869.3502,0,62.28,2.562,190,0.575,1.007,0,0,53,60.74,34.03,35.85
"2018-03-12 19:10:00",331520,0.366,182.4,-0.902,53.82,0,0,869.558,0,62.16,2.562,190,0.586,1.019,0,0,52.94,60.74,34.02,35.85
"2018-03-12 19:20:00",331521,0.277,188.4,-0.735,50.9,0,0,869.6316,0,62.18,2.561,189,0.591,1.023,0,0,52.94,60.74,34.02,35.85
"2018-03-12 19:30:00",331522,0.206,184.9,-0.449,49.1,0,0,869.6946,0,62.17,2.561,187,0.592,1.024,0.09101097,0,52.94,60.74,34.02,35.85
"2018-03-12 19:40:00",331523,0.208,196.1,-0.481,49.34,0,0,869.8484,0,62.19,2.56,186,0.593,1.025,0,0,52.94,60.74,34.02,35.85
"2018-03-12 19:50:00",331524,0.188,182.3,-0.259,45.92,0,0,869.8663,0,62.29,2.559,186,0.593,1.026,0.05688196,0,52.94,60.74,34.02,35.85
"2018-03-12 20:00:00",331525,0.186,211.9,-0.109,41.71,0,0,869.8665,0,62.19,2.554,190,0.593,1.026,0.1365167,0,52.94,60.74,34.02,35.85
"2018-03-12 20:10:00",331526,0.126,171.3,0.644,37.45,0,0,869.8665,0,62.13,2.559,182,0.593,1.002,0.348876,0,52.94,60.74,34.02,35.85
"2018-03-12 20:20:00",331527,0.173,186.1,-0.103,38.31,0,0,869.8665,0,62.71,2.55,190,0.593,1.006,0.02654491,0,52.94,60.74,34.02,35.85
"2018-03-12 20:30:00",331528,0.1,43.35,1.641,26.15,0,0,869.8665,0,61.9,2.55,173,0.593,1.015,1.092133,0,52.94,60.74,34.02,35.85
"2018-03-12 20:40:00",331529,0.265,44.12,2.507,22.45,0,0,869.8665,0,61.6,2.552,177,0.593,1.002,0.9252798,0,52.94,60.74,34.02,35.85
"2018-03-12 20:50:00",331530,0.329,32.39,2.203,23.32,0,0,869.8582,0,62.13,2.547,186,0.593,1.006,0.06825834,0,52.94,60.74,34.02,35.85
"2018-03-12 21:00:00",331531,0.441,44.35,2.981,20.43,0,0,869.8665,0,61.56,2.55,187,0.593,1.015,0.2692412,0,53,60.74,34.03,35.85
"2018-03-12 21:10:00",331532,0.322,46.56,2.479,22.19,0,0,869.8054,0,62.27,2.546,182,0.593,1.022,0,0,52.94,60.74,34.02,35.85
"2018-03-12 21:20:00",331533,0.426,13.51,3.025,21.29,0,0,869.7527,0,62.27,2.544,177,0.593,1.025,0.348876,0,52.94,60.74,34.02,35.85
"2018-03-12 21:30:00",331534,0.568,353.2,3.073,21.39,0,0,869.7654,0,62.47,2.542,174,0.589,1.025,0.00379213,0,52.94,60.74,34.02,35.85
"2018-03-12 21:40:00",331535,0.122,54.22,2.159,27.98,0,0,869.7611,0,62.27,2.552,177,0.584,1.025,0,0,52.94,60.74,34.02,35.85
"2018-03-12 21:50:00",331536,0.01,94.3,1.03,33.15,0,0,869.8665,0,61.79,2.56,190,0.592,1.025,0,0,52.94,60.74,34.02,35.85
"2018-03-12 22:00:00",331537,0.063,188.4,0.254,36.58,0,0,869.8623,0,61.89,2.559,178,0.593,1.025,0,0,52.94,60.68,34.02,35.83
"2018-03-12 22:10:00",331538,0.285,21.37,1.485,33.11,0,0,869.8665,0,61.56,2.552,177,0.593,1.024,0.6560385,0,52.94,60.68,34.02,35.83
"2018-03-12 22:20:00",331539,0.123,44.15,2.181,31.54,0,0,869.7696,0,62.03,2.55,177,0.593,1.024,0.1365167,0,52.94,60.68,34.02,35.83
"2018-03-12 22:30:00",331540,0.129,77.83,1.925,31.64,0,0,869.6473,0,61.82,2.553,178,0.593,1.015,0.09480325,0,52.94,60.68,34.02,35.83
"2018-03-12 22:40:00",331541,0.035,103.1,1.832,32.24,0,0,869.6305,0,61.78,2.552,173,0.593,0.994,0.06446622,0,52.94,60.68,34.02,35.83
"2018-03-12 22:50:00",331542,0.119,156.9,1.149,37.09,0,0,869.6305,0,62.13,2.557,186,0.593,1.003,0.00379213,0,52.94,60.68,34.02,35.83
"2018-03-12 23:00:00",331543,0.118,191,1.735,35.12,0,0,869.6368,0,61.82,2.552,192,0.593,0.986,0.3981737,0,52.94,60.68,34.02,35.83
"2018-03-12 23:10:00",331544,0.286,177.1,2.2,38.39,0,0,869.7084,0,62.37,2.543,186,0.593,1.014,0.4626399,0,52.94,60.68,34.02,35.83
"2018-03-12 23:20:00",331545,0.529,181.8,2.814,39.11,0,0,869.6579,0,61.92,2.551,174,0.597,1.02,0.4702279,0,52.88,60.68,34,35.83
"2018-03-12 23:30:00",331546,0.522,163.6,1.408,46.33,0,0,869.6136,0,62.06,2.55,183,0.601,1.032,0,0,52.94,60.68,34.02,35.83
"2018-03-12 23:40:00",331547,0.459,161.3,1.859,45.97,0,0,869.6136,0,62.3,2.55,173,0.598,1.029,0.02275326,0,52.94,60.68,34.02,35.83
"2018-03-12 23:50:00",331548,0.585,147.8,2.321,43.73,0,0,869.5862,0,61.96,2.549,185,0.595,1.027,0.1213492,0,52.94,60.68,34.02,35.83
